Location: Darlington Observatory
(36.4817°N, 105.8156°W)
Time: 16:01:08
(UTC-06:00)

Daily predictions for brighter satellites

Satellite Brightness Start Highest point End
(mag) Time Altitude Azimuth Time Altitude Azimuth Time Altitude Azimuth
Milstar 3 4.3 18:54:58 10° WSW 19:03:19 57° S 19:18:59 10° ESE
Cosmos 1484 Rocket 2.8 19:05:44 10° SSE 19:09:31 62° ENE 19:13:24 10° N
SAR-Lupe-4 4.2 19:07:42 10° SE 19:10:57 34° ENE 19:14:14 10° N
Cosmos 1758 3.7 19:14:40 10° SSE 19:18:32 43° E 19:22:26 10° NNE
Cosmos 724 4.3 19:13:14 10° SSW 19:19:06 81° ESE 19:25:11 10° NNE
USA 215 3.8 19:13:33 10° ENE 19:19:33 38° SE 19:25:31 10° SSW
OAO 3 Rocket 3.3 19:15:10 10° W 19:19:53 73° S 19:24:39 10° E
Cosmos 1378 3.3 19:21:21 10° N 19:25:05 79° W 19:28:49 10° S
Cosmos 1408 Rocket 3.5 19:23:50 10° N 19:28:07 60° E 19:32:23 10° SSE
Cosmos 1464 Rocket 4.0 19:21:58 10° S 19:28:13 84° E 19:34:25 10° N
Cosmos 2034 Rocket 4.0 19:22:20 10° S 19:28:29 62° E 19:34:43 10° NNE
SKYMED 2 4.3 19:24:41 10° N 19:28:57 58° WNW 19:33:12 10° SSW
SL-16 R/B 3.7 19:23:51 10° SW 19:29:11 41° WNW 19:34:34 10° N
Cosmos 1766 4.3 19:26:45 10° SSW 19:30:37 52° W 19:34:32 10° N
Helios 1A 3.8 19:32:32 10° SE 19:36:14 30° ENE 19:39:56 10° N
Meteor 1-21 Rocket 4.3 19:33:43 10° N 19:39:09 54° E 19:44:32 10° SSE
Meteor 1-28 Rocket 3.2 19:40:31 10° N 19:44:14 83° WNW 19:47:56 10° SSW
Meteor 1-29 3.5 19:41:30 10° NNE 19:44:44 35° E 19:47:56 10° SSE
GPS 2-04 Rocket1 2.4 19:44:17 10° WSW 19:47:42 67° S 19:49:39 24° E
SAR-Lupe-1 4.3 19:47:26 10° S 19:50:58 69° WSW 19:54:31 10° NNW
H-2A R/B 4.1 19:52:22 20° ENE 19:52:22 20° ENE 19:55:10 10° NNE
Cosmos 1805 3.9 19:52:14 10° SSW 19:56:07 59° W 20:00:01 10° N
NOAA 12 4.2 19:51:02 10° S 19:56:17 82° WSW 20:01:36 10° NNW
Resurs 1-3 3.8 19:53:20 10° SSE 19:57:32 48° ENE 20:01:46 10° N
ASTEX 1 3.7 19:54:03 10° NNE 19:58:39 40° E 20:03:12 10° SSE
Cosmos 1743 Rocket 3.5 19:54:37 10° N 19:59:00 62° E 20:03:20 10° SSE
Elektron 1 3.6 19:57:21 10° SSW 20:00:20 84° ESE 20:02:39 16° NE
ALOS 2.7 19:58:48 19° SE 20:01:35 38° ENE 20:05:55 10° N
Cosmos 1452 Rocket 4.1 19:57:08 10° NNW 20:02:18 59° WSW 20:07:25 10° S
Cosmos 1943 Rocket 3.7 19:58:56 10° NNE 20:02:23 16° NE 20:02:44 16° ENE
Cosmos 2251 Rocket 4.2 20:01:02 10° SSE 20:05:32 30° E 20:10:04 10° NE
Resurs 01 Rocket 1.5 20:01:21 10° SSE 20:05:47 80° ENE 20:10:14 10° N
Helios 1B rocket 2.4 20:03:18 10° NNE 20:07:26 87° WNW 20:11:33 10° SSW
ISS -1.6 20:05:23 10° W 20:08:19 31° NW 20:10:30 15° NNE
Cosmos 1943 3.1 20:03:55 10° S 20:09:29 67° ESE 20:15:04 10° NNE
Cosmos 1953 3.8 20:06:29 10° SSW 20:10:13 38° W 20:13:57 10° N
Cosmos 2369 Rocket 2.6 20:05:17 10° N 20:10:40 43° ENE 20:12:52 30° ESE
Cosmos 1733 3.1 20:10:21 10° S 20:14:10 64° E 20:18:00 10° NNE
Gbstr 26 Del rocket 3.4 20:10:51 10° WSW 20:15:08 70° NW 20:19:04 17° NE
CENTAUR R/B 2.4 20:11:28 10° SSW 20:17:25 89° ESE 20:24:08 10° NNE
Cosmos 1420 Rocket 4.2 20:16:07 10° NNW 20:21:25 74° WSW 20:26:43 10° S
Cosmos 1470 2.7 20:17:47 10° S 20:21:41 80° W 20:25:34 10° N
Cosmos 1674 2.6 20:20:39 10° N 20:24:32 86° W 20:26:29 28° S
GP-B 3.3 20:26:44 10° NNE 20:30:26 49° NE 20:30:26 49° NE
Spot 2 Rocket 4.1 20:27:24 10° S 20:32:19 54° W 20:37:16 10° NNW
Cosmos 2279 Rocket 4.2 20:32:30 42° E 20:32:39 42° E 20:38:25 10° NNE
Nadezhda 4 Rocket 4.4 20:27:54 10° NNW 20:34:04 65° W 20:40:10 10° S
Cosmos 2151 3.6 20:35:12 10° N 20:38:14 43° NNE 20:38:14 43° NNE
Cosmos 1092 Rocket 4.1 20:38:01 10° N 20:44:12 75° W 20:50:18 10° S
Meteor 2-1 Rocket 4.4 20:50:45 56° ENE 20:50:45 56° ENE 20:55:46 10° NNE
Meteor 1-16 Rocket 3.9 20:46:46 10° S 20:52:04 88° ESE 20:57:25 10° N
Cosmos 1655 Rocket 3.8 20:48:43 10° N 20:54:54 66° E 20:55:08 65° E
Cosmos 2026 Rocket 3.8 20:49:01 10° N 20:55:08 73° E 20:55:57 64° SE
Cosmos 1634 Rocket 4.2 20:51:25 10° SSW 20:57:36 67° W 21:03:48 10° N
USA 215 3.8 20:56:44 12° NE 21:02:38 55° NW 21:08:57 10° WSW
OAO 3 Rocket 4.2 20:58:44 10° W 21:02:28 38° SW 21:02:28 38° SW
Meteor 1-11 4.2 21:01:59 10° N 21:07:35 84° N 21:07:35 84° N
Cosmos 1943 Rocket 3.5 21:41:06 10° NNW 21:44:16 34° NW 21:44:16 34° NW
Cosmos 2369 Rocket 4.1 21:49:59 10° NW 21:54:21 23° W 21:54:43 23° WSW
